| time (UTC) | temp F | wind direction | speed MPH | gust MPH | rain 1hr in | rain 24hr in | rain mn in | humidity % | barometer mb |
| 20260504220509 | 60 | 19 | 0.0 | 0.0 | 0.00 | 0.00 | 0.00 | 13 | 1011.0 |
| 20260504215531 | 60 | 16 | 0.0 | 0.0 | 0.00 | 0.00 | 0.00 | 13 | 1011.0 |
| 20260504214554 | 61 | 15 | 0.0 | 0.0 | 0.00 | 0.00 | 0.00 | 13 | 1011.0 |
| 20260504213617 | 61 | 17 | 0.0 | 0.0 | 0.00 | 0.00 | 0.00 | 13 | 1011.0 |
| 20260504212638 | 61 | 14 | 0.0 | 0.0 | 0.00 | 0.00 | 0.00 | 12 | 1011.0 |
| 20260504211700 | 61 | 15 | 0.0 | 0.0 | 0.00 | 0.00 | 0.00 | 12 | 1011.0 |
| 20260504210722 | 61 | 16 | 0.0 | 0.0 | 0.00 | 0.00 | 0.00 | 12 | 1011.0 |
| 20260504205744 | 61 | 14 | 0.0 | 0.0 | 0.00 | 0.00 | 0.00 | 13 | 1011.0 |
| 20260504204806 | 62 | 14 | 0.0 | 0.0 | 0.00 | 0.00 | 0.00 | 12 | 1011.0 |
| 20260504203831 | 62 | 15 | 0.0 | 0.0 | 0.00 | 0.00 | 0.00 | 13 | 1011.0 |
| 20260504202851 | 62 | 16 | 0.0 | 0.0 | 0.00 | 0.00 | 0.00 | 13 | 1011.0 |
| 20260504201913 | 62 | 17 | 0.0 | 0.0 | 0.00 | 0.00 | 0.00 | 13 | 1011.0 |
| 20260504200935 | 62 | 18 | 0.0 | 0.0 | 0.00 | 0.00 | 0.00 | 13 | 1011.0 |
| 20260504195957 | 63 | 19 | 0.0 | 0.0 | 0.00 | 0.00 | 0.00 | 16 | 1011.0 |
| 20260504195021 | 63 | 19 | 0.0 | 0.0 | 0.00 | 0.00 | 0.00 | 15 | 1011.0 |
| 20260504194041 | 62 | 19 | 0.0 | 0.0 | 0.00 | 0.00 | 0.00 | 15 | 1011.0 |
| 20260504193108 | 62 | 20 | 0.0 | 0.0 | 0.00 | 0.00 | 0.00 | 15 | 1011.0 |
| 20260504192127 | 62 | 20 | 0.0 | 0.0 | 0.00 | 0.00 | 0.00 | 15 | 1011.0 |
| 20260504190210 | 63 | 19 | 0.0 | 0.0 | 0.00 | 0.00 | 0.00 | 15 | 1010.0 |
| 20260504185232 | 63 | 20 | 0.0 | 0.0 | 0.00 | 0.00 | 0.00 | 15 | 1010.0 |
| 20260504184254 | 63 | 18 | 0.0 | 0.0 | 0.00 | 0.00 | 0.00 | 15 | 1010.0 |
| 20260504183316 | 64 | 19 | 0.0 | 0.0 | 0.00 | 0.00 | 0.00 | 15 | 1010.0 |
| 20260504182338 | 64 | 18 | 0.0 | 0.0 | 0.00 | 0.00 | 0.00 | 15 | 1010.0 |
| 20260504181401 | 64 | 16 | 0.0 | 0.0 | 0.00 | 0.00 | 0.00 | 15 | 1010.0 |
| 20260504180423 | 64 | 19 | 0.0 | 0.0 | 0.00 | 0.00 | 0.00 | 15 | 1010.0 |
| 20260504175445 | 64 | 19 | 0.0 | 0.0 | 0.00 | 0.00 | 0.00 | 15 | 1010.0 |
| 20260504174507 | 64 | 19 | 0.0 | 0.0 | 0.00 | 0.00 | 0.00 | 15 | 1010.0 |
| 20260504173529 | 65 | 17 | 0.0 | 0.0 | 0.00 | 0.00 | 0.00 | 15 | 1010.0 |
| 20260504172551 | 65 | 16 | 0.0 | 0.0 | 0.00 | 0.00 | 0.00 | 15 | 1010.0 |
| 20260504171614 | 65 | 17 | 0.0 | 0.0 | 0.00 | 0.00 | 0.00 | 15 | 1010.0 |
| 20260504170638 | 64 | 19 | 0.0 | 0.0 | 0.00 | 0.00 | 0.00 | 15 | 1010.0 |
| 20260504151102 | 64 | 16 | 0.0 | 0.0 | 0.00 | 0.00 | 0.00 | 15 | 1010.0 |
| 20260504150125 | 64 | 19 | 0.0 | 0.0 | 0.00 | 0.00 | 0.00 | 15 | 1010.0 |
| 20260504141314 | 64 | 22 | 0.0 | 0.0 | 0.00 | 0.00 | 0.00 | 16 | 1011.0 |
| 20260504140336 | 64 | 21 | 0.0 | 0.0 | 0.00 | 0.00 | 0.00 | 16 | 1011.0 |
| 20260504130550 | 65 | 16 | 0.0 | 0.0 | 0.00 | 0.00 | 0.00 | 15 | 1011.0 |
| 20260504100250 | 69 | 10 | 0.0 | 0.0 | 0.00 | 0.00 | 0.00 | 12 | 1011.0 |
| 20260504080716 | 70 | 10 | 0.0 | 0.0 | 0.00 | 0.00 | 0.00 | 12 | 1012.0 |
| 20260504060204 | 63 | 20 | 0.0 | 0.0 | 0.00 | 0.00 | 0.00 | 15 | 1012.0 |
| 20260504050416 | 62 | 22 | 0.0 | 0.0 | 0.00 | 0.00 | 0.00 | 16 | 1012.0 |
| 20260504045439 | 62 | 24 | 0.0 | 0.0 | 0.00 | 0.00 | 0.00 | 16 | 1012.0 |
| 20260504044501 | 63 | 20 | 0.0 | 0.0 | 0.00 | 0.00 | 0.00 | 16 | 1012.0 |
| 20260504043523 | 63 | 22 | 0.0 | 0.0 | 0.00 | 0.00 | 0.00 | 16 | 1012.0 |
| 20260504042545 | 62 | 22 | 0.0 | 0.0 | 0.00 | 0.00 | 0.00 | 16 | 1012.0 |
| 20260504041607 | 62 | 21 | 0.0 | 0.0 | 0.00 | 0.00 | 0.00 | 16 | 1012.0 |
| 20260504040629 | 63 | 22 | 0.0 | 0.0 | 0.00 | 0.00 | 0.00 | 16 | 1012.0 |
| 20260504035652 | 62 | 21 | 0.0 | 0.0 | 0.00 | 0.00 | 0.00 | 16 | 1012.0 |
| 20260504034714 | 62 | 23 | 0.0 | 0.0 | 0.00 | 0.00 | 0.00 | 16 | 1012.0 |
| 20260504033739 | 63 | 21 | 0.0 | 0.0 | 0.00 | 0.00 | 0.00 | 16 | 1012.0 |
| 20260504032758 | 63 | 22 | 0.0 | 0.0 | 0.00 | 0.00 | 0.00 | 16 | 1012.0 |
| 20260504031820 | 63 | 23 | 0.0 | 0.0 | 0.00 | 0.00 | 0.00 | 16 | 1013.0 |
| 20260504030842 | 63 | 21 | 0.0 | 0.0 | 0.00 | 0.00 | 0.00 | 16 | 1013.0 |
| 20260504024926 | 63 | 21 | 0.0 | 0.0 | 0.00 | 0.00 | 0.00 | 16 | 1013.0 |
| 20260504023949 | 63 | 22 | 0.0 | 0.0 | 0.00 | 0.00 | 0.00 | 16 | 1012.0 |
| 20260504023011 | 63 | 21 | 0.0 | 0.0 | 0.00 | 0.00 | 0.00 | 16 | 1012.0 |
| 20260504022035 | 63 | 21 | 0.0 | 0.0 | 0.00 | 0.00 | 0.00 | 16 | 1012.0 |
| 20260504021055 | 63 | 22 | 0.0 | 0.0 | 0.00 | 0.00 | 0.00 | 16 | 1013.0 |
| 20260504020117 | 62 | 22 | 0.0 | 0.0 | 0.00 | 0.00 | 0.00 | 16 | 1013.0 |
| 20260504014202 | 62 | 24 | 0.0 | 0.0 | 0.00 | 0.00 | 0.00 | 16 | 1013.0 |
| 20260504013226 | 62 | 24 | 0.0 | 0.0 | 0.00 | 0.00 | 0.00 | 16 | 1013.0 |
| 20260504012246 | 62 | 22 | 0.0 | 0.0 | 0.00 | 0.00 | 0.00 | 16 | 1013.0 |
| 20260504011310 | 62 | 23 | 0.0 | 0.0 | 0.00 | 0.00 | 0.00 | 18 | 1013.0 |
| 20260504010330 | 62 | 22 | 0.0 | 0.0 | 0.00 | 0.00 | 0.00 | 18 | 1013.0 |
| 20260504005352 | 62 | 25 | 0.0 | 0.0 | 0.00 | 0.00 | 0.00 | 18 | 1013.0 |
| 20260504004415 | 62 | 25 | 0.0 | 0.0 | 0.00 | 0.00 | 0.00 | 18 | 1013.0 |
| 20260504003438 | 62 | 24 | 0.0 | 0.0 | 0.00 | 0.00 | 0.00 | 18 | 1013.0 |
| 20260504002459 | 62 | 25 | 0.0 | 0.0 | 0.00 | 0.00 | 0.00 | 18 | 1013.0 |
| 20260504001522 | 62 | 23 | 0.0 | 0.0 | 0.00 | 0.00 | 0.00 | 18 | 1013.0 |
| 20260504000545 | 62 | 24 | 0.0 | 0.0 | 0.00 | 0.00 | 0.00 | 18 | 1013.0 |
| 20260503235608 | 62 | 23 | 0.0 | 0.0 | 0.00 | 0.00 | 0.00 | 18 | 1013.0 |
| 20260503234632 | 62 | 25 | 0.0 | 0.0 | 0.00 | 0.00 | 0.00 | 18 | 1013.0 |
| 20260503233651 | 62 | 25 | 0.0 | 0.0 | 0.00 | 0.00 | 0.00 | 18 | 1013.0 |
| 20260503232714 | 62 | 26 | 0.0 | 0.0 | 0.00 | 0.00 | 0.00 | 18 | 1014.0 |
| 20260503231736 | 61 | 25 | 0.0 | 0.0 | 0.00 | 0.00 | 0.00 | 18 | 1014.0 |
| 20260503230758 | 62 | 26 | 0.0 | 0.0 | 0.00 | 0.00 | 0.00 | 18 | 1013.0 |
| 20260503225820 | 62 | 24 | 0.0 | 0.0 | 0.00 | 0.00 | 0.00 | 18 | 1014.0 |
| 20260503224842 | 62 | 24 | 0.0 | 0.0 | 0.00 | 0.00 | 0.00 | 18 | 1014.0 |
| 20260503223904 | 62 | 25 | 0.0 | 0.0 | 0.00 | 0.00 | 0.00 | 18 | 1014.0 |
| 20260503222925 | 61 | 25 | 0.0 | 0.0 | 0.00 | 0.00 | 0.00 | 18 | 1014.0 |
| 20260503221948 | 61 | 24 | 0.0 | 0.0 | 0.00 | 0.00 | 0.00 | 18 | 1014.0 |